User: anonymous   Login
Location: ??
(35.5138°N, 139.6953°E)
Time: 11:55:54
(UTC+00:00)
Language:

Cosmos 1331 Rocket - Orbit

View from above orbital plane
View from above orbital plane
View from above satellite
View from above satellite

Ground track
Ground track

The orbit data is extracted from the following two-line orbital elements,

1 13028U 82001B   21166.84175908  .00000056  00000-0  27042-4 0  9993
2 13028  74.0409 219.5492 0020891 298.4487  61.4562 14.38428097 66736
Epoch (UTC): 15 June 2021 20:12:07
Eccentricity: 0.0020891
inclination: 74.0409°
perigee height: 749 km
apogee height: 778 km
right ascension of ascending node: 219.5492°
argument of perigee: 298.4487°
revolutions per day: 14.38428097
mean anomaly at epoch: 61.4562°
orbit number at epoch: 6673

The dashed part of the orbit path shows where the satellite is in the earth's shadow,  

DLR